Location: Newark
(32.9900°N, 111.5400°W)
Time: 03:35:50
(UTC+00:00)

N. Korean satellite - Pass Details

Date: 26 November 2019
Orbit: 455 x 506 km, 97.2° (Epoch: 10 December)

Event Time Altitude Azimuth Distance (km) Brightness Sun altitude
Rises 12:37:26 0° 25° (NNE) 2,578 10.4 -18.5°
Reaches altitude 10° 12:39:47 10° 38° (NE) 1,683 9.6 -18.0°
Maximum altitude 12:42:51 26° 96° (E) 988 9.0 -17.4°
Drops below altitude 10° 12:45:52 10° 155° (SSE) 1,647 9.8 -16.8°
Sets 12:48:08 0° 168° (SSE) 2,511 10.6 -16.3°
